Weather History for KDEC - November, 2011

Change the Weather History Date:

Tuesday, November 8, 2011

  Actual Average Record
Temperature  
Mean Temperature 62 °F 46 °F  
Max Temperature 67 °F 56 °F 78 °F (1999)
Min Temperature 56 °F 37 °F 26 °F (2003)
Degree Days  
Heating Degree Days 3 19  
Month to date heating degree days 96 138  
Since 1 July heating degree days 496 556  
Cooling Degree Days 0 0  
Month to date cooling degree days 0 0  
Year to date cooling degree days 1327 1048  
Growing Degree Days 10 (Base 50)    
Moisture  
Dew Point 56 °F    
Average Humidity 85    
Maximum Humidity 97    
Minimum Humidity 73    
Precipitation  
Precipitation 0.25 in 0.11 in 0.25 in (2011)
Month to date precipitation 1.56 0.86  
Year to date precipitation 29.76 33.34  
Sea Level Pressure  
Sea Level Pressure 29.94 in    
Wind  
Wind Speed 13 mph (South)    
Max Wind Speed 29 mph    
Max Gust Speed 37 mph    
Visibility 9 miles    
Events Rain    
T = Trace of Precipitation, MM = Missing Value Source: NWS Daily Summary

Daily Weather History Graph

Daily Weather History Graph

Search for Another Location

Airport or City:

Trip Planner

Search our weather history database for the weather conditions in past years. The results will help you decide how hot, cold, wet, or windy it might be!

Date:

Astronomy

Nov. 08, 2011 Rise Set
Actual Time 6:31 AM CST 4:45 PM CST
Civil Twilight 6:03 AM CST 5:14 PM CST
Nautical Twilight 5:31 AM CST 5:46 PM CST
Astronomical Twilight 4:59 AM CST 6:18 PM CST
Moon 3:25 PM CST (11/8) 4:30 AM CST (11/8)
Length of Visible Light 11h 10m
Length of Day
10h 14m
Waxing Gibbous, 96% of the Moon is Illuminated
Nov 8
Waxing Gibbous
Nov 10
Full
Nov 18
Last Quarter
Nov 25
New
Dec 2
First Quarter

Hourly Weather History & Observations

Time (CST) Temp. Dew Point Humidity Pressure Visibility Wind Dir Wind Speed Gust Speed Precip Events Conditions
12:54 AM 59.0 °F 55.0 °F 87% 30.06 in 10.0 mi South 12.7 mph - N/A   Mostly Cloudy
1:54 AM 57.9 °F 54.0 °F 87% 30.04 in 10.0 mi SSE 13.8 mph - N/A   Partly Cloudy
2:54 AM 57.0 °F 53.1 °F 87% 30.03 in 10.0 mi SSE 10.4 mph - N/A   Clear
3:54 AM 57.0 °F 52.0 °F 83% 30.00 in 10.0 mi SSE 11.5 mph - N/A   Clear
4:54 AM 57.0 °F 52.0 °F 83% 29.98 in 10.0 mi SSE 13.8 mph - N/A   Scattered Clouds
5:54 AM 57.2 °F 51.8 °F 82% 29.98 in 10.0 mi South 15.0 mph 21.9 mph N/A   Overcast
6:54 AM 57.9 °F 52.0 °F 81% 29.97 in 10.0 mi South 18.4 mph 25.3 mph 0.00 in   Overcast
7:54 AM 57.2 °F 53.6 °F 88% 29.98 in 9.0 mi South 19.6 mph - N/A Rain Light Rain
8:54 AM 57.9 °F 53.1 °F 84% 29.98 in 10.0 mi South 17.3 mph 23.0 mph 0.01 in   Overcast
9:54 AM 60.1 °F 54.0 °F 80% 29.94 in 10.0 mi South 18.4 mph 25.3 mph N/A   Clear
10:54 AM 64.0 °F 55.0 °F 73% 29.93 in 10.0 mi South 17.3 mph 31.1 mph N/A   Partly Cloudy
11:54 AM 64.9 °F 55.9 °F 73% 29.94 in 10.0 mi SSW 19.6 mph 28.8 mph N/A   Mostly Cloudy
12:54 PM 64.9 °F 55.9 °F 73% 29.94 in 10.0 mi SW 15.0 mph - 0.00 in   Overcast
1:54 PM 64.9 °F 57.0 °F 75% 29.95 in 10.0 mi SW 11.5 mph - 0.00 in   Overcast
2:54 PM 64.9 °F 57.9 °F 78% 29.95 in 10.0 mi WSW 5.8 mph - N/A   Overcast
3:16 PM 64.4 °F 57.2 °F 77% 29.95 in 10.0 mi WSW 6.9 mph - 0.00 in Rain Light Rain
3:35 PM 62.6 °F 59.0 °F 88% 29.95 in 10.0 mi Calm Calm - 0.00 in Rain Light Rain
4:03 PM 62.6 °F 59.0 °F 88% 29.96 in 3.0 mi Calm Calm - 0.02 in Rain Rain
4:18 PM 62.6 °F 59.0 °F 88% 29.97 in 2.5 mi WSW 3.5 mph - 0.05 in Rain Rain
4:26 PM 60.8 °F 59.0 °F 94% 29.96 in 4.0 mi Calm Calm - 0.05 in Rain Light Rain
4:54 PM 60.1 °F 59.0 °F 96% 29.96 in 3.0 mi South 4.6 mph - 0.13 in Rain Rain
5:33 PM 59.0 °F 57.2 °F 94% 29.95 in 10.0 mi SE 3.5 mph - 0.01 in Rain Light Rain
5:54 PM 59.0 °F 57.9 °F 96% 29.91 in 10.0 mi ESE 9.2 mph - 0.01 in   Mostly Cloudy
6:14 PM 59.0 °F 57.2 °F 94% 29.92 in 10.0 mi SE 10.4 mph - N/A   Scattered Clouds
6:54 PM 59.0 °F 57.9 °F 96% 29.91 in 10.0 mi SE 11.5 mph - N/A   Overcast
7:54 PM 60.1 °F 57.9 °F 93% 29.91 in 10.0 mi ESE 4.6 mph - N/A   Overcast
8:54 PM 59.0 °F 57.9 °F 96% 29.90 in 5.0 mi Calm Calm - 0.02 in Rain Rain
9:04 PM 59.0 °F 57.2 °F 94% 29.90 in 6.0 mi Calm Calm - 0.00 in Rain Light Rain
9:25 PM 60.8 °F 57.2 °F 88% 29.90 in 10.0 mi SSE 6.9 mph - N/A   Overcast
9:32 PM 60.8 °F 57.2 °F 88% 29.90 in 10.0 mi South 6.9 mph - 0.00 in   Overcast
9:54 PM 61.0 °F 57.9 °F 90% 29.89 in 10.0 mi South 13.8 mph - 0.00 in   Overcast
10:05 PM 60.8 °F 57.2 °F 88% 29.87 in 10.0 mi South 13.8 mph - 0.00 in Rain Light Rain
10:37 PM 60.8 °F 59.0 °F 94% 29.87 in 8.0 mi South 15.0 mph 21.9 mph 0.03 in Rain Rain
10:54 PM 61.0 °F 59.0 °F 93% 29.85 in 10.0 mi South 17.3 mph 25.3 mph 0.04 in Rain Light Rain
11:54 PM 61.0 °F 59.0 °F 93% 29.81 in 10.0 mi South 21.9 mph 29.9 mph 0.02 in   Overcast